Glens Falls, NY

11:21 AM EST on December 12, 2019 (GMT -0500)
Bennett Memorial

Weather History for KGFL - October, 2019

Change the Weather History Date:

Thursday, October 17, 2019

  Actual Average Record
Temperature  
Mean Temperature 47 °F 46 °F  
Max Temperature 50 °F 58 °F 81 °F (1947)
Min Temperature 44 °F 35 °F 21 °F (1978)
Degree Days  
Heating Degree Days 18 19  
Month to date heating degree days 251 273  
Since 1 July heating degree days 473 558  
Cooling Degree Days 0 0  
Month to date cooling degree days 0 0  
Year to date cooling degree days 416 351  
Moisture  
Dew Point 46 °F    
Average Humidity 86    
Maximum Humidity 86    
Minimum Humidity 86    
Precipitation  
Precipitation 1.97 in 0.11 in 1.97 in (2019)
Month to date precipitation 4.46 1.96  
Year to date precipitation 35.31 31.15  
Sea Level Pressure  
Sea Level Pressure 29.17 in    
Wind  
Wind Speed 17 mph (NNW)    
Max Wind Speed 20 mph    
Max Gust Speed 31 mph    
Visibility 4 miles    
Events Rain    
T = Trace of Precipitation, MM = Missing Value Source: NWS Daily Summary

Daily Weather History Graph

Daily Weather History Graph

Search for Another Location

Airport or City:

Astronomy

Oct. 17, 2019 Rise Set
Actual Time 7:10 AM EDT 6:08 PM EDT
Civil Twilight 6:41 AM EDT 6:37 PM EDT
Nautical Twilight 6:08 AM EDT 7:10 PM EDT
Astronomical Twilight 5:35 AM EDT 7:43 PM EDT
Moon 8:33 PM EDT (10/17) 10:44 AM EDT (10/17)
Length of Visible Light 11h 55m
Length of Day
10h 58m
Waning Gibbous, 87% of the Moon is Illuminated
Oct 17
Waning Gibbous
Oct 21
Last Quarter
Oct 27
New
Nov 4
First Quarter
Nov 12
Full

Hourly Weather History & Observations

Time (EDT) Temp. Dew Point Humidity Pressure Visibility Wind Dir Wind Speed Gust Speed Precip Events Conditions
12:16 AM 50.0 °F 48.0 °F 93% 29.31 in 3.0 mi NNW 11.5 mph - 0.11 in Rain Heavy Rain
12:46 AM 50.0 °F 46.9 °F 89% 29.27 in 3.0 mi NNW 16.1 mph 25.3 mph 0.29 in Rain Heavy Rain
12:53 AM 50.0 °F 46.9 °F 89% 29.28 in 3.0 mi NNW 17.3 mph - 0.32 in Rain Rain
1:53 AM 50.0 °F 46.9 °F 89% 29.23 in 4.0 mi NNW 15.0 mph 24.2 mph 0.23 in Rain Rain
2:53 AM 50.0 °F 46.9 °F 89% 29.16 in 3.0 mi NNW 18.4 mph 26.5 mph 0.23 in Rain Rain
3:53 AM 50.0 °F 46.0 °F 86% 29.14 in 4.0 mi NNW 19.6 mph 28.8 mph 0.20 in Rain Rain
4:53 AM 48.0 °F 45.0 °F 89% 29.10 in 6.0 mi NNW 16.1 mph 26.5 mph 0.21 in Rain Rain
5:53 AM - - N/A% 29.05 in - North - - 0.21 in   Overcast
6:53 AM 46.0 °F 42.1 °F 86% 29.04 in - North - - 0.22 in Rain Rain
8:53 AM - - N/A% 29.04 in - North - - N/A   Unknown
9:53 AM - - N/A% 29.04 in - North - - N/A   Unknown
10:53 AM - - N/A% 29.07 in - North - - N/A   Unknown
11:53 AM - - N/A% 29.08 in - North - - N/A   Unknown
12:53 PM - - N/A% 29.10 in - North - - N/A   Unknown
1:53 PM - - N/A% 29.13 in - North - - N/A   Unknown
2:53 PM - - N/A% 29.17 in - North - - N/A   Unknown
3:53 PM - - N/A% 29.21 in - North - - N/A   Unknown
4:53 PM - - N/A% 29.26 in - North - - N/A   Unknown
5:53 PM - - N/A% 29.30 in - North - - N/A   Unknown
6:53 PM - - N/A% 29.34 in - North - - N/A   Unknown